Location: Grand Lay
(47.3253°N, 0.9468°E)
Time: 18:17:28
(UTC+00:00)

Cosmos 220 Rocket - Pass Details

Date: 18 January 2026
Orbit: 540 x 575 km, 74.0° (Epoch: 18 February)

Event Time Altitude Azimuth Distance (km) Brightness Sun altitude
Exits shadow 06:41:08 - 336° (NNW) 2,464 6.7 -9.3°
Reaches altitude 10° 06:42:34 10° 335° (NNW) 1,886 6.1 -9.1°
Maximum altitude 06:46:45 77° 251° (WSW) 588 3.8 -8.5°
Drops below altitude 10° 06:50:53 10° 164° (SSE) 1,852 7.1 -7.8°
Sets 06:53:03 0° 163° (SSE) 2,738 8.0 -7.5°
